Location: Almansa
(38.8670°N, 1.0830°W)
Time: 13:41:58
(UTC+02:00)

ISS - Visible Passes

Search period start: 15 July 2020 00:00
Search period end: 25 July 2020 00:00
Orbit: 417 x 419 km, 51.6° (Epoch: 16 July)

Date Brightness Start Highest point End Pass type
(mag) Time Alt. Az. Time Alt. Az. Time Alt. Az.
15 Jul -0.5 01:02:01 10° NW 01:04:01 15° NNW 01:06:02 10° NNE visible
15 Jul -0.7 04:17:30 10° NNW 04:19:51 17° NNE 04:22:12 10° ENE visible
15 Jul -3.9 05:53:38 10° NW 05:57:00 82° SW 06:00:20 10° SE visible
15 Jul -3.9 22:35:28 10° SW 22:38:48 67° SE 22:42:08 10° NE visible
16 Jul -0.9 00:13:20 10° WNW 00:15:51 19° NNW 00:18:23 10° NNE visible
16 Jul -0.4 03:29:52 10° NNW 03:31:40 14° NNE 03:33:29 10° NE visible
16 Jul -3.1 05:05:43 10° NW 05:09:02 56° NE 05:12:19 10° ESE visible
16 Jul -1.5 23:24:48 10° W 23:27:44 27° NNW 23:30:39 10° NNE visible
17 Jul -0.1 01:04:45 10° NNW 01:05:24 10° N 01:06:04 10° N visible
17 Jul -0.2 02:42:17 10° N 02:43:26 11° NNE 02:44:35 10° NNE visible
17 Jul -2.0 04:17:54 10° NW 04:21:00 34° NNE 04:24:05 10° E visible
17 Jul -2.7 05:54:51 10° WNW 05:57:40 25° SW 06:00:29 10° S visible
17 Jul -2.3 22:36:27 10° WSW 22:39:39 41° NNW 22:42:51 10° NE visible
18 Jul -0.3 00:15:41 10° NW 00:17:08 12° NNW 00:18:35 10° NNE visible
18 Jul -1.3 03:30:08 10° NNW 03:37:48 - E 03:32:41 23° NNE visible
18 Jul -2.3 05:11:32 23° SSE 05:11:32 23° SSE 05:13:01 10° SSE visible
18 Jul -0.6 23:26:50 10° WNW 23:28:53 15° NNW 23:30:57 10° NNE visible
19 Jul -0.6 02:42:24 10° NNW 02:43:27 14° N 02:43:27 14° N visible
19 Jul -0.9 22:38:08 10° WNW 22:40:41 20° NNW 22:43:14 10° NNE visible
20 Jul -0.5 01:54:43 10° NNW 01:56:06 13° N 01:56:06 13° N visible
20 Jul -0.3 23:29:27 10° NNW 23:30:11 11° N 23:30:55 10° N visible
21 Jul -0.5 01:07:06 10° N 01:08:13 11° NNE 01:09:08 10° NNE visible
21 Jul -0.6 22:40:22 10° NW 22:41:52 12° NNW 22:43:22 10° NNE visible
22 Jul -0.4 01:54:54 10° NNW 01:55:13 12° NNW 01:55:13 12° NNW visible
22 Jul -0.8 21:51:29 10° WNW 21:53:35 15° NNW 21:55:41 10° NNE visible
23 Jul -0.7 01:07:08 10° NNW 01:08:30 15° N 01:08:30 15° N visible
24 Jul -0.9 00:19:24 10° NNW 00:21:09 13° NNE 00:21:51 13° NNE visible
24 Jul -0.6 21:53:59 10° NNW 21:54:47 11° N 21:55:36 10° N visible
24 Jul -0.7 23:31:46 10° N 23:32:49 11° N 23:33:51 10° NNE visible
